Regional Weather Roundup
Issued by NWS Midland/Odessa, TX

Skip options and go directly to product.
Home | Oldest Version | Previous Version | Current Version | All | Text Only | Save Text | Print | Product List | Glossary Off

Skip product version selection by date and time.   

720
ASUS44 KMAF 310310
RWRMAF
MIDLAND AREA WEATHER ROUNDUP
NATIONAL WEATHER SERVICE MIDLAND TX
1000 PM CDT WED JUL 30 2014

...IN SOUTHWEST TEXAS AND SOUTHEAST NEW MEXICO...

CITY           SKY/WX    TMP DP  RH WIND       PRES   REMARKS
ALPINE         CLOUDY    81  54  38 S10       30.18R THUNDER
ANDREWS        FAIR      84  64  49 NE10      30.05R
ARTESIA        CLOUDY    86  61  42 NE13      30.07R
BIG SPRING     CLOUDY    87  57  36 CALM      30.02R
CARLSBAD       TSTM      74  66  76 SE15G22   30.09R
DRYDEN           N/A     97  50  20 E15G23    29.90R
FORT STOCKTON  CLOUDY    82  60  47 N10       30.04R
GUAD PASS      CLOUDY    76  55  48 NE12      30.21R
HOBBS          CLOUDY    82  61  47 NE15G22   30.10R
MARFA          CLOUDY    77  52  41 N12       30.16R
MIDLAND AIRPK  CLOUDY    87  59  37 W9        30.03R
MIDLAND INTL   LGT RAIN  81  66  60 W14       30.04R
ODESSA         TSTM      75  65  70 W6G22     30.06R
PECOS          LGT RAIN  75  68  79 S7        30.02R
PRESIDIO       FAIR      93  54  26 NE5       29.94R
SEMINOLE       CLOUDY    83  61  47 NE16G26   30.07R
SNYDER         MOCLDY    81  67  62 NE13      30.03R
WINK           LGT RAIN  77  70  79 S7        29.97F
$$
...OTHER STATIONS IN TEXAS...

CITY           SKY/WX    TMP DP  RH WIND       PRES   REMARKS
ABILENE        CLOUDY    83  68  60 CALM      29.95R
AMARILLO       CLOUDY    64  61  90 N13       30.21R
AUSTIN         PTCLDY    88  62  41 SE15      29.90R
BROWNSVILLE    CLEAR     83  78  85 SE14G20   29.95R
CORPUS CHRISTI PTCLDY    83  75  77 SE15      29.94R
DALLAS FTW     PTCLDY    84  71  65 SE14      29.91R
DEL RIO        CLEAR     94  51  23 E8        29.84R
EL PASO        MOCLDY    85  56  37 SW6       30.04R
HOUSTON INT    MOCLDY    82  73  74 SE13      29.96S
LUBBOCK        MOCLDY    72  61  68 N20G30    30.11R
SAN ANGELO     CLEAR     91  52  26 S8        29.91R
SAN ANTONIO    MOCLDY    88  64  44 SE22      29.92R
WACO           CLEAR     86  69  56 SE13      29.91R
WICHITA FALLS  NOT AVBL
$$
...OTHER LOCATIONS IN NEW MEXICO...

CITY           SKY/WX    TMP DP  RH WIND       PRES   REMARKS
ALAMAGORDO     PTCLDY    86  54  32 CALM      30.03R
ALBUQUERQUE    MOCLDY    72  57  59 E32G44    30.15R
CANNON AFB     CLEAR     67  60  80 NE15G23   30.21R
CLOVIS         NOT AVBL
HOLLOMAN AFB   PTCLDY    90  54  29 W12       30.02R
ROSWELL        MOCLDY    79  62  56 NE14G26   30.10R
RUIDOSO        CLEAR     66  59  77 SE8       30.34S
SANTA FE       PTCLDY    67  56  67 SE21G30   30.25R
TRUTH OR CONSE HVY RAIN  82  62  50 NW8       30.10R
TUCUMCARI      CLOUDY    69  56  62 NE21G28   30.21R
$$

USA.gov is the U.S. government's official web portal to all federal, state and local government web resources and services.